KAL515 RKPC-RKSS

Flight info

Callsign KAL515
Flight time 0h 44m
Altitude 27000
Route KAMIT2E KAMIT Y722 OLMEN OLMEN2T
Aircraft B738/M-SDE2E3FGHIRWXY/LB1

Departure

Time 2026-04-30 05:40
Airport Jeju International Airport (RKPC)

Arrival

Time 2026-04-30 06:24
Airport Gimpo International Airport (RKSS)
Time Latitude Longitude Altitude Speed Heading
2026-04-30 05:26 33.50714 126.49187 86 ft 0 kts 148°
2026-04-30 05:28 33.50715 126.49185 86 ft 0 kts 148°
2026-04-30 05:28 33.50722 126.49180 85 ft 2 kts 148°
2026-04-30 05:28 33.50735 126.49171 84 ft 2 kts 149°
2026-04-30 05:29 33.50749 126.49161 84 ft 2 kts 149°
2026-04-30 05:29 33.50762 126.49152 83 ft 2 kts 147°
2026-04-30 05:29 33.50777 126.49147 82 ft 2 kts 180°
2026-04-30 05:29 33.50791 126.49149 82 ft 2 kts 199°
2026-04-30 05:30 33.50804 126.49157 81 ft 2 kts 219°
2026-04-30 05:30 33.50813 126.49168 81 ft 0 kts 236°
2026-04-30 05:30 33.50816 126.49175 81 ft 1 kts 239°
2026-04-30 05:30 33.50817 126.49175 81 ft 0 kts 238°
2026-04-30 05:32 33.50816 126.49173 81 ft 1 kts 238°
2026-04-30 05:32 33.50798 126.49139 81 ft 7 kts 237°
2026-04-30 05:33 33.50774 126.49094 81 ft 5 kts 237°
2026-04-30 05:33 33.50755 126.49058 81 ft 4 kts 237°
2026-04-30 05:33 33.50736 126.49023 82 ft 6 kts 237°
2026-04-30 05:33 33.50701 126.48955 82 ft 12 kts 240°
2026-04-30 05:34 33.50686 126.48901 81 ft 5 kts 261°
2026-04-30 05:34 33.50701 126.48871 80 ft 6 kts 342°
2026-04-30 05:34 33.50761 126.48848 77 ft 11 kts 340°
2026-04-30 05:34 33.50766 126.48731 75 ft 19 kts 240°
2026-04-30 05:35 33.50699 126.48603 77 ft 16 kts 237°
2026-04-30 05:35 33.50643 126.48488 78 ft 15 kts 240°
2026-04-30 05:35 33.50593 126.48386 79 ft 13 kts 237°
2026-04-30 05:35 33.50547 126.48304 81 ft 10 kts 235°
2026-04-30 05:36 33.50515 126.48242 83 ft 8 kts 238°
2026-04-30 05:36 33.50477 126.48170 85 ft 12 kts 237°
2026-04-30 05:36 33.50412 126.48046 89 ft 30 kts 238°
2026-04-30 05:36 33.50234 126.47690 93 ft 57 kts 239°
2026-04-30 05:37 33.50028 126.47283 87 ft 56 kts 235°
2026-04-30 05:37 33.49900 126.47045 85 ft 15 kts 240°
2026-04-30 05:37 33.49885 126.47008 84 ft 15 kts 251°
2026-04-30 05:37 33.49912 126.46918 81 ft 0 kts 326°
2026-04-30 05:38 33.49913 126.46916 81 ft 2 kts 326°
2026-04-30 05:38 33.49968 126.46877 77 ft 15 kts 336°
2026-04-30 05:39 33.50027 126.46915 74 ft 0 kts 59°
2026-04-30 05:39 33.50027 126.46916 74 ft 2 kts 59°
2026-04-30 05:39 33.50085 126.47033 74 ft 38 kts 59°
2026-04-30 05:39 33.50372 126.47589 84 ft 116 kts 57°
2026-04-30 05:40 33.50912 126.48622 331 ft 160 kts 56°
2026-04-30 05:40 33.51448 126.49647 1302 ft 151 kts 54°
2026-04-30 05:40 33.52088 126.50739 1946 ft 161 kts 43°
2026-04-30 05:40 33.52966 126.51605 2436 ft 170 kts 36°
2026-04-30 05:41 33.53900 126.52540 2899 ft 182 kts 40°
2026-04-30 05:41 33.54852 126.53625 3336 ft 197 kts 42°
2026-04-30 05:41 33.55885 126.54814 3736 ft 215 kts 42°
2026-04-30 05:41 33.57009 126.56090 4154 ft 233 kts 42°
2026-04-30 05:42 33.58220 126.57469 4644 ft 248 kts 42°
2026-04-30 05:42 33.59504 126.58933 5204 ft 260 kts 42°
2026-04-30 05:42 33.60832 126.60452 5890 ft 267 kts 42°
2026-04-30 05:42 33.62167 126.61976 6589 ft 272 kts 43°
2026-04-30 05:43 33.63551 126.63559 7217 ft 279 kts 43°
2026-04-30 05:43 33.64980 126.65187 7900 ft 285 kts 43°
2026-04-30 05:43 33.66423 126.66832 8564 ft 291 kts 43°
2026-04-30 05:43 33.67914 126.68537 9140 ft 300 kts 43°
2026-04-30 05:44 33.69448 126.70227 9732 ft 306 kts 39°
2026-04-30 05:44 33.71282 126.71596 9944 ft 309 kts 19°
2026-04-30 05:44 33.73333 126.72092 9967 ft 301 kts
2026-04-30 05:44 33.75431 126.72175 9965 ft 300 kts 358°
2026-04-30 05:45 33.77519 126.72219 9962 ft 299 kts 359°
2026-04-30 05:45 33.79588 126.72338 9957 ft 300 kts
2026-04-30 05:45 33.81694 126.72528 9954 ft 302 kts
2026-04-30 05:45 33.83781 126.72746 9956 ft 300 kts
2026-04-30 05:46 33.85871 126.72961 9959 ft 302 kts
2026-04-30 05:46 33.87952 126.73170 9957 ft 302 kts
2026-04-30 05:46 33.90059 126.73388 9957 ft 300 kts
2026-04-30 05:46 33.92143 126.73605 9954 ft 302 kts
2026-04-30 05:47 33.94233 126.73820 9952 ft 300 kts
2026-04-30 05:47 33.96302 126.74035 9960 ft 300 kts
2026-04-30 05:47 33.98460 126.74258 10092 ft 320 kts
2026-04-30 05:47 34.00711 126.74486 10407 ft 336 kts
2026-04-30 05:48 34.03128 126.74737 10737 ft 352 kts
2026-04-30 05:48 34.05591 126.74997 11067 ft 366 kts
2026-04-30 05:48 34.08183 126.75272 11461 ft 379 kts
2026-04-30 05:48 34.10801 126.75552 12090 ft 383 kts
2026-04-30 05:49 34.13469 126.75839 12714 ft 387 kts
2026-04-30 05:49 34.16190 126.76131 13296 ft 393 kts
2026-04-30 05:49 34.18924 126.76426 13975 ft 396 kts
2026-04-30 05:49 34.21655 126.76724 14611 ft 400 kts
2026-04-30 05:50 34.24469 126.77031 15135 ft 408 kts
2026-04-30 05:50 34.27304 126.77338 15836 ft 410 kts
2026-04-30 05:50 34.30150 126.77644 16423 ft 415 kts
2026-04-30 05:50 34.33008 126.77948 16994 ft 420 kts
2026-04-30 05:51 34.35952 126.78261 17576 ft 424 kts
2026-04-30 05:51 34.38904 126.78575 18088 ft 430 kts
2026-04-30 05:51 34.41918 126.78896 18620 ft 435 kts
2026-04-30 05:51 34.44918 126.79215 19177 ft 439 kts
2026-04-30 05:52 34.48003 126.79542 19665 ft 445 kts
2026-04-30 05:52 34.51116 126.79871 20148 ft 451 kts
2026-04-30 05:52 34.54222 126.80201 20664 ft 455 kts
2026-04-30 05:52 34.57408 126.80539 21104 ft 462 kts
2026-04-30 05:53 34.60628 126.80881 21634 ft 465 kts 360°
2026-04-30 05:53 34.63884 126.81228 22085 ft 470 kts 360°
2026-04-30 05:53 34.67144 126.81576 22569 ft 473 kts 359°
2026-04-30 05:53 34.70410 126.81925 22992 ft 478 kts 359°
2026-04-30 05:54 34.73728 126.82282 23486 ft 481 kts 359°
2026-04-30 05:54 34.77071 126.82639 23892 ft 486 kts 359°
2026-04-30 05:54 34.80483 126.83007 24423 ft 489 kts 359°
2026-04-30 05:54 34.83830 126.83369 24879 ft 492 kts 359°
2026-04-30 05:55 34.87279 126.83740 25310 ft 496 kts 359°
2026-04-30 05:55 34.90700 126.84109 25715 ft 501 kts 359°
2026-04-30 05:55 34.94221 126.84488 26091 ft 506 kts 359°
2026-04-30 05:55 34.97723 126.84866 26704 ft 504 kts 360°
2026-04-30 05:56 35.01212 126.85246 26980 ft 506 kts 359°
2026-04-30 05:56 35.04689 126.85626 27010 ft 501 kts 360°
2026-04-30 05:56 35.08186 126.86009 27012 ft 501 kts 359°
2026-04-30 05:56 35.11603 126.86384 27014 ft 497 kts 359°
2026-04-30 05:57 35.15054 126.86760 27014 ft 499 kts 359°
2026-04-30 05:57 35.18516 126.87138 27008 ft 499 kts 360°
2026-04-30 05:57 35.21974 126.87515 27007 ft 499 kts 360°
2026-04-30 05:57 35.25444 126.87892 27013 ft 498 kts 359°
2026-04-30 05:58 35.28887 126.88266 26999 ft 501 kts 360°
2026-04-30 05:58 35.32345 126.88642 26996 ft 498 kts 359°
2026-04-30 05:58 35.35789 126.89020 27006 ft 497 kts 360°
2026-04-30 05:58 35.39230 126.89396 27005 ft 498 kts 359°
2026-04-30 05:59 35.42685 126.89774 26999 ft 498 kts 359°
2026-04-30 05:59 35.46118 126.90147 27006 ft 497 kts 360°
2026-04-30 05:59 35.49593 126.90527 26994 ft 498 kts 360°
2026-04-30 05:59 35.53057 126.90906 26995 ft 496 kts 359°
2026-04-30 06:00 35.56455 126.91276 26998 ft 498 kts 359°
2026-04-30 06:00 35.59893 126.91651 26995 ft 495 kts 359°
2026-04-30 06:00 35.63345 126.92030 26988 ft 494 kts 359°
2026-04-30 06:00 35.66777 126.92406 26993 ft 496 kts 359°
2026-04-30 06:01 35.70192 126.92780 26993 ft 496 kts 359°
2026-04-30 06:01 35.73648 126.93160 26985 ft 494 kts 360°
2026-04-30 06:01 35.77066 126.93536 26982 ft 494 kts 360°
2026-04-30 06:01 35.80499 126.93915 26986 ft 497 kts 360°
2026-04-30 06:02 35.83925 126.94291 26998 ft 496 kts 360°
2026-04-30 06:02 35.87368 126.94671 26988 ft 494 kts 360°
2026-04-30 06:02 35.90762 126.95047 26987 ft 492 kts 360°
2026-04-30 06:02 35.94178 126.95424 26989 ft 494 kts 359°
2026-04-30 06:03 35.97610 126.95804 26986 ft 493 kts 359°
2026-04-30 06:03 36.01020 126.96183 26870 ft 490 kts 359°
2026-04-30 06:03 36.04386 126.96558 26628 ft 484 kts 360°
2026-04-30 06:03 36.07718 126.96931 26361 ft 478 kts 360°
2026-04-30 06:04 36.11029 126.97298 26119 ft 479 kts 360°
2026-04-30 06:04 36.14344 126.97665 25863 ft 477 kts
2026-04-30 06:04 36.17659 126.98033 25614 ft 475 kts 360°
2026-04-30 06:05 36.24195 126.98758 25114 ft 470 kts 360°
2026-04-30 06:05 36.27424 126.99118 24872 ft 465 kts
2026-04-30 06:05 36.30654 126.99478 24616 ft 463 kts
2026-04-30 06:05 36.33861 126.99837 24365 ft 461 kts
2026-04-30 06:06 36.37013 127.00188 24113 ft 458 kts
2026-04-30 06:06 36.40190 127.00422 23864 ft 453 kts 356°
2026-04-30 06:06 36.43326 127.00440 23613 ft 449 kts 354°
2026-04-30 06:06 36.46458 127.00333 23365 ft 446 kts 353°
2026-04-30 06:07 36.49522 127.00180 23133 ft 443 kts 353°
2026-04-30 06:07 36.52612 127.00017 22872 ft 442 kts 353°
2026-04-30 06:07 36.55654 126.99862 22627 ft 440 kts 353°
2026-04-30 06:07 36.58696 126.99714 22384 ft 438 kts 353°
2026-04-30 06:08 36.61717 126.99579 22150 ft 434 kts 354°
2026-04-30 06:08 36.64749 126.99454 21794 ft 429 kts 354°
2026-04-30 06:08 36.67706 126.99389 21216 ft 428 kts 357°
2026-04-30 06:08 36.70692 126.99661 20560 ft 431 kts
2026-04-30 06:09 36.73556 127.00676 19903 ft 434 kts 21°
2026-04-30 06:09 36.76225 127.02457 19199 ft 434 kts 33°
2026-04-30 06:09 36.78595 127.04712 18520 ft 433 kts 40°
2026-04-30 06:09 36.80857 127.07153 17833 ft 431 kts 42°
2026-04-30 06:10 36.83069 127.09660 17148 ft 427 kts 43°
2026-04-30 06:10 36.85216 127.12147 16477 ft 417 kts 44°
2026-04-30 06:10 36.87320 127.14600 15814 ft 407 kts 44°
2026-04-30 06:10 36.89343 127.16958 15175 ft 398 kts 44°
2026-04-30 06:11 36.91349 127.19293 14534 ft 389 kts 44°
2026-04-30 06:11 36.93334 127.21530 13962 ft 380 kts 41°
2026-04-30 06:11 36.95457 127.23363 13252 ft 377 kts 27°
2026-04-30 06:11 36.97976 127.24267 12531 ft 373 kts
2026-04-30 06:12 37.00509 127.24017 11868 ft 368 kts 347°
2026-04-30 06:12 37.02978 127.23251 11256 ft 362 kts 345°
2026-04-30 06:12 37.05386 127.22510 10651 ft 355 kts 346°
2026-04-30 06:12 37.07750 127.21822 10356 ft 339 kts 347°
2026-04-30 06:13 37.09969 127.21199 10266 ft 318 kts 348°
2026-04-30 06:13 37.12077 127.20616 10162 ft 301 kts 348°
2026-04-30 06:13 37.14064 127.20068 9992 ft 287 kts 348°
2026-04-30 06:13 37.16021 127.19526 9626 ft 284 kts 348°
2026-04-30 06:14 37.17930 127.18993 9259 ft 281 kts 349°
2026-04-30 06:14 37.19817 127.18470 8913 ft 281 kts 348°
2026-04-30 06:14 37.21733 127.17938 8562 ft 283 kts 349°
2026-04-30 06:14 37.23661 127.17390 8204 ft 282 kts 347°
2026-04-30 06:15 37.25519 127.16603 7941 ft 279 kts 334°
2026-04-30 06:15 37.27106 127.15237 7570 ft 282 kts 319°
2026-04-30 06:15 37.28538 127.13512 7057 ft 286 kts 315°
2026-04-30 06:15 37.29926 127.11768 6644 ft 283 kts 316°
2026-04-30 06:16 37.31327 127.10066 6240 ft 276 kts 317°
2026-04-30 06:16 37.32668 127.08392 5848 ft 270 kts 316°
2026-04-30 06:16 37.33967 127.06745 5463 ft 264 kts 316°
2026-04-30 06:16 37.35219 127.05168 5313 ft 245 kts 316°
2026-04-30 06:17 37.36398 127.03670 4998 ft 238 kts 315°
2026-04-30 06:17 37.37530 127.02203 4672 ft 232 kts 316°
2026-04-30 06:17 37.38689 127.00822 4388 ft 225 kts 318°
2026-04-30 06:17 37.39801 126.99474 4124 ft 218 kts 317°
2026-04-30 06:18 37.40813 126.98151 3909 ft 203 kts 313°
2026-04-30 06:18 37.41769 126.96892 3593 ft 193 kts 316°
2026-04-30 06:18 37.42710 126.95737 3347 ft 182 kts 314°
2026-04-30 06:18 37.43561 126.94636 3125 ft 175 kts 313°
2026-04-30 06:19 37.44427 126.93561 2866 ft 174 kts 322°
2026-04-30 06:19 37.45358 126.92633 2639 ft 172 kts 322°
2026-04-30 06:19 37.46218 126.91572 2411 ft 175 kts 311°
2026-04-30 06:19 37.46992 126.90409 2176 ft 169 kts 312°
2026-04-30 06:20 37.47836 126.89392 1952 ft 165 kts 318°
2026-04-30 06:20 37.48649 126.88408 1749 ft 162 kts 316°
2026-04-30 06:20 37.49416 126.87374 1507 ft 159 kts 311°
2026-04-30 06:20 37.50192 126.86382 1320 ft 160 kts 317°
2026-04-30 06:21 37.50692 126.85801 1172 ft 158 kts 316°
2026-04-30 06:21 37.50724 126.85765 1161 ft 158 kts 316°
2026-04-30 06:22 37.50876 126.85585 1112 ft 158 kts 317°
2026-04-30 06:22 37.51658 126.84667 929 ft 154 kts 316°
2026-04-30 06:22 37.52409 126.83702 717 ft 152 kts 312°
2026-04-30 06:23 37.53154 126.82756 527 ft 151 kts 314°
2026-04-30 06:23 37.53882 126.81827 351 ft 151 kts 313°
2026-04-30 06:23 37.54633 126.80885 132 ft 149 kts 314°
2026-04-30 06:23 37.55335 126.79997 61 ft 131 kts 314°
2026-04-30 06:24 37.55819 126.79393 67 ft 65 kts 315°
2026-04-30 06:24 37.56049 126.79112 64 ft 34 kts 322°
2026-04-30 06:24 37.56205 126.79002 63 ft 16 kts 341°
2026-04-30 06:24 37.56317 126.78977 61 ft 15 kts 29°
2026-04-30 06:25 37.56311 126.79079 61 ft 12 kts 132°
2026-04-30 06:25 37.56255 126.79149 62 ft 10 kts 137°
2026-04-30 06:25 37.56210 126.79203 64 ft 8 kts 135°
2026-04-30 06:25 37.56154 126.79274 66 ft 14 kts 134°
2026-04-30 06:26 37.56073 126.79377 68 ft 17 kts 135°
2026-04-30 06:26 37.55976 126.79496 70 ft 19 kts 134°
2026-04-30 06:26 37.55936 126.79639 70 ft 17 kts 96°
2026-04-30 06:26 37.55920 126.79784 71 ft 15 kts 98°
2026-04-30 06:27 37.55905 126.79910 72 ft 14 kts 98°
2026-04-30 06:27 37.55856 126.80012 70 ft 11 kts 137°
2026-04-30 06:27 37.55839 126.80079 69 ft 8 kts 61°
2026-04-30 06:27 37.55874 126.80126 68 ft 2 kts 47°
2026-04-30 06:28 37.55888 126.80145 68 ft 2 kts 46°
2026-04-30 06:28 37.55893 126.80152 68 ft 0 kts 45°
2026-04-30 06:28 37.55894 126.80154 68 ft 0 kts 45°